Location: Pardubice
(50.0618°N, 15.7556°E)
Time: 03:41:06
(UTC+02:00)

ISS - Pass Details

Date: 25 May 2018
Orbit: 402 x 406 km, 51.6° (Epoch: 18 June)

Event Time Altitude Azimuth Distance (km) Brightness Sun altitude
Rises 23:33:02 0° 277° (W) 2,322 0.4 -16.6°
Reaches altitude 10° 23:35:08 10° 280° (W) 1,461 -0.6 -16.8°
Maximum altitude 23:38:23 64° 3° (N) 451 -3.4 -16.9°
Enters shadow 23:41:33 11° 86° (E) 1,428 -1.2 -17.1°
